Wind_Speed
57 59 60 46 20 22 40 59 74 75 75 75 73 70 71 74 77 80 81 81 81 82 83 84 88 91 95 95 97 101 104 102 104 107 103 95 97 93 90 92 88 85 81 83 69
63 60 60 60 45 18 18 37 56 71 74 74 74 74 72 71 72 74 79 80 82 83 82 82 84 84 86 89 93 97 95 93 100 102 103 104 100 100 98 94 90 91 84 83 83
69 64 60 59 59 46 19 14 33 51 68 73 74 73 74 73 71 69 72 75 78 80 82 83 83 83 83 85 87 89 89 91 95 100 102 104 104 102 104 98 91 95 95 90 87
70 70 66 60 57 56 48 25 11 27 46 63 71 73 73 74 71 76 72 72 74 76 78 81 83 82 83 83 86 86 85 89 92 96 98 98 103 105 105 97 94 101 93 85 84
70 68 69 67 58 53 52 49 32 13 19 40 58 68 72 73 70 77 74 76 76 76 76 77 79 82 83 85 86 83 84 87 89 92 96 100 99 102 102 99 99 100 93 91 89
71 68 68 69 65 55 49 47 46 38 19 15 30 52 63 69 71 73 76 76 78 79 79 79 80 78 79 83 85 85 85 86 87 88 92 95 96 104 98 104 104 101 99 100 100
68 70 69 66 66 63 53 44 41 42 40 29 13 22 43 56 66 74 74 77 78 78 80 82 82 82 83 81 81 82 82 85 86 90 90 95 93 90 98 106 105 109 102 108 103
62 66 70 68 67 64 61 52 43 39 38 38 35 22 14 32 50 63 72 76 78 79 81 80 83 84 86 86 84 84 85 83 84 90 91 96 85 89 97 102 102 103 103 108 106
61 63 68 68 69 66 63 59 49 41 37 35 35 35 31 14 21 40 54 67 75 80 80 81 84 84 85 86 87 88 87 88 90 91 91 91 82 91 97 97 95 94 100 107 112
57 60 63 66 66 66 64 61 57 48 42 37 33 32 33 32 25 14 27 43 58 69 76 81 82 83 85 87 86 89 89 92 91 95 93 89 85 90 94 93 91 97 97 101 104
56 55 60 61 63 65 66 60 59 56 50 44 36 33 30 29 30 28 22 17 33 47 62 71 78 83 86 86 86 89 90 87 88 95 94 90 89 93 96 93 91 95 96 99 100
55 54 55 58 61 62 64 66 59 57 54 51 46 38 33 31 29 29 27 27 22 22 40 54 66 76 80 84 85 85 89 91 93 95 95 89 88 94 95 96 95 97 96 97 98
51 55 54 56 58 60 63 64 64 61 57 57 52 45 39 34 33 31 30 32 32 29 26 33 52 65 71 75 81 85 88 89 91 94 93 89 86 92 98 99 100 98 98 100 98
47 52 52 54 54 59 59 64 64 65 60 59 57 56 46 41 36 35 35 36 39 41 41 30 36 51 60 71 77 77 81 86 87 89 87 91 88 91 96 97 97 100 102 103 102
44 48 51 53 54 56 57 62 61 64 66 60 58 59 57 47 42 40 40 41 45 48 50 44 30 40 46 64 73 75 78 79 79 81 85 85 91 86 94 97 99 100 100 101 103
44 43 47 51 51 53 57 60 60 64 66 63 62 62 58 54 49 45 43 47 50 55 58 50 35 36 43 54 69 74 75 75 76 78 81 77 86 82 89 99 99 98 98 97 101
45 44 43 50 52 53 55 60 62 65 64 67 65 64 62 58 56 49 46 49 53 60 64 51 35 35 41 47 59 68 73 76 79 77 71 74 83 78 87 91 94 92 94 100 101
46 46 44 46 51 51 55 58 62 62 63 70 67 69 71 64 63 59 57 59 62 68 66 48 33 35 34 41 52 60 67 74 79 81 76 76 76 76 82 85 88 85 88 97 101
48 47 45 43 48 52 55 58 61 61 62 69 69 68 72 70 68 63 57 57 64 69 72 47 34 36 34 39 46 53 62 69 77 78 79 75 75 79 72 76 78 82 88 91 96
48 49 47 44 44 50 54 57 60 59 64 69 66 71 74 75 72 69 66 65 65 76 72 48 32 39 37 36 37 47 59 66 70 72 78 75 77 77 79 78 80 82 84 86 90
52 50 48 46 45 48 51 55 58 61 60 68 69 73 75 75 76 72 65 64 69 77 63 38 39 37 36 34 42 42 52 59 67 68 73 76 77 81 79 82 80 82 86 82 86
56 54 51 49 47 47 50 56 58 60 61 65 72 73 76 76 79 77 69 68 72 77 58 48 38 32 33 35 39 46 44 55 58 61 67 71 73 78 79 81 84 85 88 82 85
58 57 56 53 49 44 50 52 56 59 62 66 73 73 75 77 78 83 72 71 74 74 52 46 41 31 30 32 38 41 45 47 50 56 57 65 61 78 80 84 86 85 89 90 84
57 56 54 54 52 48 51 49 57 57 63 65 73 75 77 80 81 84 77 72 78 76 54 48 39 30 28 31 35 35 42 44 45 50 57 54 59 72 75 75 82 86 89 92 77
52 53 55 52 53 49 50 50 55 58 62 65 71 75 79 82 83 85 80 75 77 76 54 49 36 27 25 27 27 29 29 36 35 38 45 53 49 62 67 74 76 79 80 73 68
49 50 54 48 51 49 50 48 53 58 62 67 72 75 80 83 83 85 79 75 79 74 56 47 35 26 23 22 21 23 25 27 26 33 41 45 42 60 64 63 64 68 66 66 62
47 49 50 50 48 48 52 49 53 59 61 67 72 76 81 82 82 84 78 74 79 75 56 47 35 28 23 23 20 24 26 25 28 33 35 37 46 52 56 58 57 56 59 56 50
Wind_Direction
20 18 20 15 341 267 245 238 235 235 236 236 237 237 238 239 240 240 240 240 238 240 239 240 241 241 243 244 244 244 243 239 236 238 242 243 242 237 236 232 234 237 232 238 243
25 22 21 23 21 353 266 244 238 235 235 236 236 237 237 237 238 238 239 239 239 239 239 239 240 240 240 242 244 244 243 241 240 241 242 243 240 243 238 237 236 235 234 238 238
27 26 24 23 24 24 6 274 245 238 235 236 236 237 237 238 237 238 239 239 238 238 239 239 239 240 240 240 242 241 241 239 240 241 241 242 242 243 242 236 239 235 230 237 238
26 28 27 24 24 25 27 17 301 250 240 237 237 238 238 239 238 240 239 239 239 239 239 239 240 239 239 239 240 240 240 239 238 240 240 240 240 242 245 244 239 240 237 235 235
27 27 28 28 25 24 26 29 25 339 264 245 239 238 240 239 239 241 240 240 240 239 240 240 240 240 240 240 240 239 239 240 240 240 241 239 240 242 243 242 241 235 240 236 236
21 26 27 27 27 24 23 26 27 31 12 290 253 242 241 240 240 241 242 241 242 241 240 241 241 241 241 240 239 239 239 239 240 241 242 242 240 240 239 239 240 231 240 237 236
18 20 23 24 25 26 25 23 25 27 30 27 343 264 247 242 241 242 241 243 243 243 243 243 243 241 242 242 242 242 241 240 240 240 240 242 241 242 242 241 238 236 235 236 236
15 16 19 22 23 25 25 23 20 21 26 27 28 16 302 254 247 243 243 243 243 243 244 244 244 243 243 243 242 242 242 242 242 241 240 241 239 241 241 242 241 240 237 235 239
14 14 15 17 20 21 22 25 22 17 17 21 26 26 23 350 269 252 248 246 245 245 244 244 245 245 245 244 243 244 243 242 241 242 240 242 239 241 242 242 242 242 240 237 235
9 11 12 12 16 18 18 20 24 21 16 12 15 19 23 23 14 318 265 254 251 248 247 246 245 245 245 245 244 244 243 242 242 244 242 241 241 242 243 243 242 242 241 241 238
5 8 8 9 10 14 16 17 17 23 20 14 8 9 13 16 20 18 2 303 261 254 251 248 247 246 245 245 245 245 245 244 244 245 242 243 241 242 243 243 242 243 242 242 240
359 1 6 6 7 7 11 14 14 16 18 16 14 7 3 4 6 9 10 9 356 296 261 252 250 247 246 246 246 246 245 244 244 245 245 239 242 243 243 244 241 242 243 242 241
354 354 358 1 2 3 3 8 10 10 11 13 14 8 4 358 357 356 358 1 357 351 330 273 253 249 247 246 245 244 245 245 245 245 245 244 239 242 243 241 243 242 243 245 243
353 351 352 355 357 358 358 360 3 6 6 6 8 9 5 359 352 350 350 350 351 347 342 318 273 254 244 245 245 244 244 244 245 245 246 244 240 241 243 244 242 241 241 243 244
350 350 347 349 353 353 354 355 358 1 3 4 2 4 4 359 354 345 346 346 347 344 342 326 293 266 250 242 244 242 244 245 245 245 244 244 242 241 243 243 243 242 241 242 244
345 347 346 343 346 346 351 352 353 356 359 359 359 360 2 357 351 346 343 343 345 342 340 332 301 269 255 241 242 242 242 244 243 244 243 244 245 240 243 242 243 242 243 243 243
340 341 342 342 343 342 345 345 350 351 354 356 356 357 356 355 350 346 342 343 344 340 340 331 307 279 257 248 243 243 240 239 241 241 242 242 243 240 242 244 244 243 243 244 243
336 337 338 339 339 337 341 342 346 346 351 354 354 353 355 354 350 346 342 343 345 342 342 330 311 286 277 256 245 243 242 238 240 241 239 242 245 244 246 244 246 245 244 243 244
332 334 335 337 336 334 335 339 343 342 347 350 351 352 353 352 349 347 343 342 343 340 339 326 314 293 274 263 252 245 242 241 240 239 241 239 241 246 243 248 245 244 242 243 243
329 331 331 332 334 331 331 335 339 340 342 347 350 351 351 351 348 346 342 342 345 339 335 321 314 291 276 267 260 248 242 241 243 240 240 238 241 243 246 245 247 247 245 244 244
328 328 330 328 329 330 328 331 336 337 340 344 348 349 349 349 349 345 342 343 340 339 331 318 314 291 284 267 254 248 243 245 242 241 240 238 240 243 244 246 246 245 247 244 244
322 325 327 326 325 327 326 330 332 334 337 343 344 346 347 346 347 346 341 341 341 338 331 322 312 294 287 271 260 251 244 243 245 242 241 240 240 241 245 248 248 250 250 245 250
316 319 321 324 324 321 325 327 328 329 334 339 342 343 345 344 344 346 342 340 341 339 333 326 317 306 291 271 259 254 250 249 246 245 246 243 237 243 242 245 251 251 253 252 240
309 315 317 322 324 321 326 326 327 327 329 336 339 342 343 343 341 344 342 341 341 341 338 334 323 309 291 272 264 258 248 248 246 244 239 244 234 242 246 248 249 252 253 251 253
306 311 313 318 321 320 324 323 323 323 325 331 336 338 341 341 340 342 342 339 342 341 341 338 329 314 297 276 265 260 249 249 252 252 250 247 242 243 246 248 249 251 256 262 259
300 304 309 311 315 315 320 322 323 321 324 328 334 335 339 340 339 341 341 340 341 343 342 341 334 324 306 283 271 259 250 241 237 231 237 241 242 242 244 250 253 256 260 261 260
292 297 304 306 309 310 318 317 321 322 321 328 332 333 337 338 339 340 340 340 342 342 343 343 341 337 323 298 276 258 256 239 228 231 233 233 238 246 241 246 250 254 256 258 264
Height
10655 10642 10627 10614 10606 10605 10608 10614 10622 10631 10639 10647 10655 10662 10669 10676 10684 10693 10701 10709 10715 10720 10728 10735 10740 10747 10754 10761 10766 10772 10789 10806 10808 10810 10814 10813 10818 10830 10838 10846 10845 10861 10869 10866 10890
10657 10645 10632 10620 10609 10604 10603 10606 10611 10618 10626 10634 10642 10649 10656 10663 10671 10682 10685 10693 10699 10706 10712 10720 10724 10731 10739 10742 10748 10757 10774 10781 10780 10788 10794 10792 10799 10810 10819 10829 10836 10843 10855 10856 10866
10662 10649 10638 10627 10617 10608 10603 10602 10604 10608 10614 10622 10629 10636 10643 10650 10659 10668 10672 10677 10683 10690 10696 10703 10708 10715 10722 10726 10732 10741 10760 10756 10764 10769 10773 10779 10783 10790 10797 10808 10821 10824 10835 10839 10854
10669 10657 10645 10634 10625 10616 10607 10602 10601 10603 10606 10611 10618 10624 10630 10636 10651 10645 10657 10663 10668 10675 10681 10687 10692 10699 10705 10712 10714 10724 10735 10740 10746 10749 10756 10764 10765 10768 10774 10809 10806 10808 10820 10832 10844
10676 10663 10653 10642 10631 10623 10615 10609 10602 10600 10601 10603 10606 10612 10618 10625 10637 10629 10645 10649 10654 10660 10665 10670 10676 10681 10690 10695 10700 10712 10716 10721 10726 10730 10737 10742 10755 10757 10764 10783 10776 10793 10805 10819 10822
10681 10671 10659 10649 10639 10630 10623 10616 10609 10603 10598 10597 10598 10602 10606 10614 10618 10624 10627 10632 10639 10645 10650 10655 10660 10670 10676 10675 10682 10691 10698 10705 10711 10718 10721 10723 10733 10733 10758 10750 10754 10779 10788 10791 10796
10685 10676 10666 10656 10646 10637 10629 10622 10615 10609 10602 10597 10594 10593 10596 10602 10605 10607 10613 10617 10623 10628 10633 10639 10646 10650 10654 10662 10667 10674 10684 10687 10693 10697 10703 10701 10717 10733 10729 10726 10741 10753 10763 10768 10777
10689 10679 10670 10661 10652 10642 10633 10625 10619 10613 10608 10601 10595 10591 10589 10591 10593 10595 10598 10604 10606 10611 10618 10624 10626 10633 10638 10643 10652 10657 10661 10671 10677 10675 10683 10678 10712 10712 10705 10706 10721 10733 10747 10754 10765
10692 10683 10674 10665 10657 10648 10638 10629 10621 10616 10611 10606 10599 10592 10587 10585 10584 10585 10587 10590 10592 10596 10602 10607 10610 10615 10619 10625 10632 10637 10646 10650 10652 10653 10659 10667 10696 10687 10684 10692 10707 10718 10724 10732 10736
10695 10686 10677 10669 10661 10652 10643 10635 10625 10618 10613 10608 10602 10596 10590 10585 10581 10579 10578 10579 10580 10582 10586 10589 10592 10597 10601 10606 10615 10613 10620 10625 10637 10634 10643 10656 10670 10667 10667 10677 10692 10692 10701 10706 10719
10696 10688 10680 10672 10664 10656 10647 10638 10631 10623 10615 10609 10603 10596 10591 10586 10582 10577 10573 10571 10570 10570 10570 10572 10575 10578 10580 10585 10591 10595 10601 10613 10615 10607 10623 10640 10648 10647 10647 10658 10671 10670 10678 10684 10696
10697 10689 10681 10673 10666 10657 10649 10642 10634 10625 10617 10609 10603 10596 10590 10585 10581 10576 10572 10568 10564 10560 10558 10557 10559 10555 10562 10567 10574 10579 10579 10582 10585 10590 10600 10618 10626 10627 10632 10639 10645 10647 10656 10664 10673
10697 10689 10681 10674 10666 10658 10649 10641 10634 10625 10618 10610 10601 10593 10588 10582 10577 10572 10568 10563 10558 10554 10549 10544 10540 10539 10546 10547 10548 10553 10557 10561 10567 10568 10579 10598 10611 10603 10602 10613 10622 10634 10638 10641 10650
10696 10689 10681 10673 10665 10657 10649 10641 10632 10626 10616 10605 10598 10591 10583 10576 10571 10566 10560 10554 10549 10543 10538 10531 10524 10522 10527 10528 10528 10533 10534 10538 10546 10551 10564 10567 10584 10587 10585 10591 10600 10607 10612 10619 10627
10694 10687 10680 10671 10664 10657 10648 10640 10631 10622 10615 10608 10599 10589 10580 10571 10565 10557 10551 10544 10538 10531 10525 10515 10510 10504 10509 10508 10507 10515 10515 10522 10529 10534 10535 10548 10553 10568 10563 10569 10575 10583 10594 10601 10609
10691 10684 10677 10670 10662 10654 10646 10638 10629 10620 10612 10604 10592 10583 10574 10564 10556 10550 10543 10533 10526 10518 10509 10501 10492 10488 10488 10487 10488 10492 10500 10504 10507 10510 10518 10529 10528 10547 10541 10538 10551 10568 10578 10588 10587
10686 10680 10672 10666 10659 10650 10643 10635 10627 10616 10610 10598 10589 10580 10568 10557 10548 10543 10534 10524 10516 10505 10494 10485 10477 10471 10469 10471 10470 10472 10479 10484 10485 10491 10509 10505 10500 10526 10513 10525 10533 10554 10559 10558 10565
10681 10675 10668 10661 10654 10646 10638 10631 10622 10613 10603 10594 10583 10570 10560 10548 10538 10527 10516 10506 10496 10484 10478 10470 10464 10457 10460 10457 10456 10456 10459 10464 10467 10473 10485 10487 10494 10502 10499 10511 10514 10533 10537 10534 10541
10675 10670 10663 10657 10650 10642 10634 10627 10618 10608 10599 10587 10576 10566 10554 10541 10530 10520 10511 10502 10490 10479 10463 10456 10452 10443 10443 10438 10439 10443 10442 10445 10445 10456 10462 10476 10476 10475 10488 10488 10496 10500 10502 10513 10518
10669 10663 10657 10650 10645 10637 10628 10621 10612 10602 10591 10582 10572 10560 10548 10534 10521 10507 10494 10486 10480 10464 10451 10440 10442 10427 10424 10427 10426 10426 10425 10425 10430 10440 10444 10455 10458 10465 10465 10472 10472 10475 10485 10494 10499
10663 10656 10652 10645 10638 10631 10623 10614 10606 10597 10586 10575 10564 10553 10541 10530 10515 10502 10491 10483 10469 10455 10440 10431 10424 10415 10411 10410 10407 10409 10409 10410 10413 10421 10427 10437 10442 10443 10451 10451 10457 10458 10458 10473 10476
10655 10650 10644 10638 10631 10623 10616 10608 10599 10590 10580 10570 10560 10546 10534 10522 10511 10497 10482 10470 10458 10444 10426 10415 10410 10402 10396 10393 10394 10393 10395 10395 10397 10408 10411 10417 10431 10433 10433 10437 10437 10440 10440 10455 10455
10645 10641 10635 10632 10624 10618 10611 10602 10594 10584 10575 10563 10554 10543 10530 10517 10505 10488 10475 10460 10446 10434 10416 10404 10391 10388 10383 10379 10377 10381 10383 10385 10387 10392 10402 10402 10426 10408 10416 10418 10415 10422 10420 10423 10440
10635 10631 10627 10620 10615 10608 10602 10596 10587 10578 10568 10557 10547 10535 10523 10510 10495 10481 10464 10451 10433 10420 10404 10391 10381 10375 10370 10365 10364 10368 10369 10370 10373 10377 10382 10391 10402 10393 10396 10403 10402 10401 10398 10398 10411
10626 10622 10615 10612 10608 10601 10595 10588 10581 10572 10563 10554 10540 10530 10517 10504 10487 10472 10456 10439 10426 10408 10396 10383 10373 10366 10360 10356 10355 10356 10361 10361 10365 10368 10373 10375 10386 10384 10383 10379 10381 10378 10378 10390 10397
10615 10612 10607 10603 10599 10593 10587 10580 10574 10565 10556 10544 10535 10522 10509 10495 10482 10466 10450 10433 10418 10404 10387 10378 10367 10358 10354 10350 10349 10349 10349 10350 10353 10355 10358 10362 10370 10359 10359 10369 10373 10370 10375 10375 10376
10606 10603 10598 10593 10590 10585 10579 10572 10565 10557 10549 10539 10527 10514 10502 10489 10473 10459 10444 10428 10411 10394 10382 10373 10363 10353 10348 10345 10343 10341 10342 10343 10344 10344 10348 10352 10348 10348 10350 10353 10357 10360 10359 10359 10361